owner,sensor,date,latitude,longitude,vertical_datum,direction_of_sea_water_velocity,sea_water_speed,upward_sea_water_velocity,qcFlag 
TABS,ioos:station:wmo:42051:1,2012-05-01T00:00:00Z,29.6350,-93.6417,2.0,2.217620989,5.944451194,-99999.0,'11133222,11111222,99999999' 
TABS,ioos:station:wmo:42051:1,2012-05-01T00:30:00Z,29.6350,-93.6417,2.0,30.83308284,3.004663043,-99999.0,'11133222,11111222,99999999' 
TABS,ioos:station:wmo:42051:1,2012-05-01T01:00:00Z,29.6350,-93.6417,2.0,285.4828664,4.420407221,-99999.0,'11133222,11111222,99999999' 
TABS,ioos:station:wmo:42051:1,2012-05-01T01:30:00Z,29.6350,-93.6417,2.0,259.4179683,7.405943559,-99999.0,'11133222,11111222,99999999' 
TABS,ioos:station:wmo:42051:1,2012-05-01T02:00:00Z,29.6350,-93.6417,2.0,271.4387439,29.87941432,-99999.0,'11111222,11111222,99999999' 
TABS,ioos:station:wmo:42051:1,2012-05-01T02:30:00Z,29.6350,-93.6417,2.0,278.7762811,32.24753169,-99999.0,'11111222,11111222,99999999' 
TABS,ioos:station:wmo:42051:1,2012-05-01T03:00:00Z,29.6350,-93.6417,2.0,274.9171834,29.51862124,-99999.0,'11111222,11111222,99999999' 
TABS,ioos:station:wmo:42051:1,2012-05-01T03:30:00Z,29.6350,-93.6417,2.0,270.8003459,26.50258289,-99999.0,'11111222,11111222,99999999' 
TABS,ioos:station:wmo:42051:1,2012-05-01T04:00:00Z,29.6350,-93.6417,2.0,258.4080635,22.74386291,-99999.0,'11111222,11111222,99999999' 
TABS,ioos:station:wmo:42051:1,2012-05-01T04:30:00Z,29.6350,-93.6417,2.0,262.5428465,19.49486599,-99999.0,'11111222,11111222,99999999' 
TABS,ioos:station:wmo:42051:1,2012-05-01T05:00:00Z,29.6350,-93.6417,2.0,267.3004229,22.08450135,-99999.0,'11111222,11111222,99999999' 
TABS,ioos:station:wmo:42051:1,2012-05-01T05:30:00Z,29.6350,-93.6417,2.0,245.2244964,19.18588022,-99999.0,'11111222,11111222,99999999' 
TABS,ioos:station:wmo:42051:1,2012-05-01T06:00:00Z,29.6350,-93.6417,2.0,245.0765734,20.28946771,-99999.0,'11111222,11111222,99999999' 
TABS,ioos:station:wmo:42051:1,2012-05-01T06:30:00Z,29.6350,-93.6417,2.0,239.5187558,18.92554094,-99999.0,'11111222,11111222,99999999' 
TABS,ioos:station:wmo:42051:1,2012-05-01T07:00:00Z,29.6350,-93.6417,2.0,250.5465472,31.67837433,-99999.0,'11111222,11111222,99999999' 
TABS,ioos:station:wmo:42051:1,2012-05-01T07:30:00Z,29.6350,-93.6417,2.0,249.1908836,32.90643858,-99999.0,'11111222,11111222,99999999' 
TABS,ioos:station:wmo:42051:1,2012-05-01T08:00:00Z,29.6350,-93.6417,2.0,239.1326622,31.4786102,-99999.0,'11111222,11111222,99999999' 
TABS,ioos:station:wmo:42051:1,2012-05-01T08:30:00Z,29.6350,-93.6417,2.0,236.5741384,27.0308287,-99999.0,'11111222,11111222,99999999' 
TABS,ioos:station:wmo:42051:1,2012-05-01T09:00:00Z,29.6350,-93.6417,2.0,246.9292208,25.23847262,-99999.0,'11111222,11111222,99999999' 
TABS,ioos:station:wmo:42051:1,2012-05-01T09:30:00Z,29.6350,-93.6417,2.0,234.2815354,22.88462366,-99999.0,'11111222,11111222,99999999' 
TABS,ioos:station:wmo:42051:1,2012-05-01T10:00:00Z,29.6350,-93.6417,2.0,236.7374001,24.88731806,-99999.0,'11111222,11111222,99999999' 
TABS,ioos:station:wmo:42051:1,2012-05-01T10:30:00Z,29.6350,-93.6417,2.0,227.3225159,25.12293375,-99999.0,'11111222,11111222,99999999' 
TABS,ioos:station:wmo:42051:1,2012-05-01T11:00:00Z,29.6350,-93.6417,2.0,228.747146,20.23115666,-99999.0,'11111222,11111222,99999999' 
TABS,ioos:station:wmo:42051:1,2012-05-01T11:30:00Z,29.6350,-93.6417,2.0,233.4132796,22.23027215,-99999.0,'11111222,11111222,99999999' 
TABS,ioos:station:wmo:42051:1,2012-05-01T12:00:00Z,29.6350,-93.6417,2.0,230.4205509,20.7331739,-99999.0,'11111222,11111222,99999999' 
TABS,ioos:station:wmo:42051:1,2012-05-01T12:30:00Z,29.6350,-93.6417,2.0,226.6531201,20.58537831,-99999.0,'11111222,11111222,99999999' 
TABS,ioos:station:wmo:42051:1,2012-05-01T13:00:00Z,29.6350,-93.6417,2.0,223.1124321,19.10931972,-99999.0,'11111222,11111222,99999999' 
TABS,ioos:station:wmo:42051:1,2012-05-01T13:30:00Z,29.6350,-93.6417,2.0,222.0913768,16.30567079,-99999.0,'11111222,11111222,99999999' 
TABS,ioos:station:wmo:42051:1,2012-05-01T14:00:00Z,29.6350,-93.6417,2.0,213.669664,15.80063606,-99999.0,'11111222,11111222,99999999' 
TABS,ioos:station:wmo:42051:1,2012-05-01T14:30:00Z,29.6350,-93.6417,2.0,224.2842712,13.59165185,-99999.0,'11111222,11111222,99999999' 
TABS,ioos:station:wmo:42051:1,2012-05-01T15:00:00Z,29.6350,-93.6417,2.0,229.4856703,17.08654734,-99999.0,'11111222,11111222,99999999' 
TABS,ioos:station:wmo:42051:1,2012-05-01T15:30:00Z,29.6350,-93.6417,2.0,237.2955334,16.60186134,-99999.0,'11111222,11111222,99999999' 
TABS,ioos:station:wmo:42051:1,2012-05-01T16:00:00Z,29.6350,-93.6417,2.0,247.5996127,17.24089615,-99999.0,'11111222,11111222,99999999' 
TABS,ioos:station:wmo:42051:1,2012-05-01T16:30:00Z,29.6350,-93.6417,2.0,242.5531881,23.25785889,-99999.0,'11111222,11111222,99999999' 
TABS,ioos:station:wmo:42051:1,2012-05-01T17:00:00Z,29.6350,-93.6417,2.0,271.1202088,12.79244308,-99999.0,'11111222,11111222,99999999' 
TABS,ioos:station:wmo:42051:1,2012-05-01T17:30:00Z,29.6350,-93.6417,2.0,248.7620706,16.03928303,-99999.0,'11111222,11111222,99999999' 
TABS,ioos:station:wmo:42051:1,2012-05-01T18:00:00Z,29.6350,-93.6417,2.0,242.0684981,14.06886634,-99999.0,'11111222,11111222,99999999' 
TABS,ioos:station:wmo:42051:1,2012-05-01T18:30:00Z,29.6350,-93.6417,2.0,233.4392085,18.88627544,-99999.0,'11111222,11111222,99999999' 
TABS,ioos:station:wmo:42051:1,2012-05-01T19:00:00Z,29.6350,-93.6417,2.0,243.7019084,28.75614717,-99999.0,'11111222,11111222,99999999' 
TABS,ioos:station:wmo:42051:1,2012-05-01T19:30:00Z,29.6350,-93.6417,2.0,253.0435784,27.56843303,-99999.0,'11111222,11111222,99999999' 
TABS,ioos:station:wmo:42051:1,2012-05-01T20:00:00Z,29.6350,-93.6417,2.0,256.6629919,21.84923797,-99999.0,'11111222,11111222,99999999' 
TABS,ioos:station:wmo:42051:1,2012-05-01T20:30:00Z,29.6350,-93.6417,2.0,266.0912581,16.57855543,-99999.0,'11111222,11111222,99999999' 
TABS,ioos:station:wmo:42051:1,2012-05-01T21:00:00Z,29.6350,-93.6417,2.0,244.7113368,12.24327571,-99999.0,'11111222,11111222,99999999' 
TABS,ioos:station:wmo:42051:1,2012-05-01T21:30:00Z,29.6350,-93.6417,2.0,246.3853622,8.68746223,-99999.0,'11133222,11111222,99999999' 
TABS,ioos:station:wmo:42051:1,2012-05-01T22:00:00Z,29.6350,-93.6417,2.0,248.1183846,7.996049024,-99999.0,'11133222,11111222,99999999' 
TABS,ioos:station:wmo:42051:1,2012-05-01T22:30:00Z,29.6350,-93.6417,2.0,251.4144667,10.85613651,-99999.0,'11111222,11111222,99999999' 
TABS,ioos:station:wmo:42051:1,2012-05-01T23:00:00Z,29.6350,-93.6417,2.0,247.3724106,11.98230779,-99999.0,'11111222,11111222,99999999' 
TABS,ioos:station:wmo:42051:1,2012-05-01T23:30:00Z,29.6350,-93.6417,2.0,256.9721773,13.08682544,-99999.0,'11111222,11111222,99999999' 
TABS,ioos:station:wmo:42051:1,2012-05-02T00:00:00Z,29.6350,-93.6417,2.0,256.3453337,12.36959175,-99999.0,'11111222,11111222,99999999' 
TABS,ioos:station:wmo:42051:1,2012-05-02T00:30:00Z,29.6350,-93.6417,2.0,239.9649321,10.78867925,-99999.0,'11111222,11111222,99999999' 
TABS,ioos:station:wmo:42051:1,2012-05-02T01:00:00Z,29.6350,-93.6417,2.0,246.5604326,15.00845762,-99999.0,'11111222,11111222,99999999' 
TABS,ioos:station:wmo:42051:1,2012-05-02T01:30:00Z,29.6350,-93.6417,2.0,271.9699927,11.05653201,-99999.0,'11111222,11111222,99999999' 
TABS,ioos:station:wmo:42051:1,2012-05-02T02:00:00Z,29.6350,-93.6417,2.0,239.0219815,14.12462389,-99999.0,'11111222,11111222,99999999' 
TABS,ioos:station:wmo:42051:1,2012-05-02T02:30:00Z,29.6350,-93.6417,2.0,250.6897451,16.3603698,-99999.0,'11111222,11111222,99999999' 
TABS,ioos:station:wmo:42051:1,2012-05-02T03:00:00Z,29.6350,-93.6417,2.0,254.7027105,13.22866962,-99999.0,'11111222,11111222,99999999' 
TABS,ioos:station:wmo:42051:1,2012-05-02T03:30:00Z,29.6350,-93.6417,2.0,263.5009165,21.558525,-99999.0,'11111222,11111222,99999999' 
TABS,ioos:station:wmo:42051:1,2012-05-02T04:00:00Z,29.6350,-93.6417,2.0,257.1441421,27.77622725,-99999.0,'11111222,11111222,99999999' 
TABS,ioos:station:wmo:42051:1,2012-05-02T04:30:00Z,29.6350,-93.6417,2.0,261.9462995,52.75021327,-99999.0,'11111222,11111222,99999999' 
TABS,ioos:station:wmo:42051:1,2012-05-02T05:00:00Z,29.6350,-93.6417,2.0,262.8621252,57.062181,-99999.0,'11111222,11111222,99999999' 
TABS,ioos:station:wmo:42051:1,2012-05-02T05:30:00Z,29.6350,-93.6417,2.0,255.4711222,51.66199474,-99999.0,'11111222,11111222,99999999' 
TABS,ioos:station:wmo:42051:1,2012-05-02T06:00:00Z,29.6350,-93.6417,2.0,259.6318987,49.7319706,-99999.0,'11111222,11111222,99999999' 
TABS,ioos:station:wmo:42051:1,2012-05-02T06:30:00Z,29.6350,-93.6417,2.0,259.2975117,53.79572195,-99999.0,'11111222,11111222,99999999' 
TABS,ioos:station:wmo:42051:1,2012-05-02T07:00:00Z,29.6350,-93.6417,2.0,256.5509955,52.49959714,-99999.0,'11111222,11111222,99999999' 
TABS,ioos:station:wmo:42051:1,2012-05-02T07:30:00Z,29.6350,-93.6417,2.0,255.2579406,46.29385812,-99999.0,'11111222,11111222,99999999' 
TABS,ioos:station:wmo:42051:1,2012-05-02T08:00:00Z,29.6350,-93.6417,2.0,254.285394,46.30050216,-99999.0,'11111222,11111222,99999999' 
TABS,ioos:station:wmo:42051:1,2012-05-02T08:30:00Z,29.6350,-93.6417,2.0,248.3002253,47.98003752,-99999.0,'11111222,11111222,99999999' 
TABS,ioos:station:wmo:42051:1,2012-05-02T09:00:00Z,29.6350,-93.6417,2.0,239.8429379,47.97291319,-99999.0,'11111222,11111222,99999999' 
TABS,ioos:station:wmo:42051:1,2012-05-02T09:30:00Z,29.6350,-93.6417,2.0,233.2758958,43.13014027,-99999.0,'11111222,11111222,99999999' 
TABS,ioos:station:wmo:42051:1,2012-05-02T10:00:00Z,29.6350,-93.6417,2.0,228.4831464,35.37827865,-99999.0,'11111222,11111222,99999999' 
TABS,ioos:station:wmo:42051:1,2012-05-02T10:30:00Z,29.6350,-93.6417,2.0,238.5044327,33.09550574,-99999.0,'11111222,11111222,99999999' 
TABS,ioos:station:wmo:42051:1,2012-05-02T11:00:00Z,29.6350,-93.6417,2.0,235.9115744,24.35469975,-99999.0,'11111222,11111222,99999999' 
TABS,ioos:station:wmo:42051:1,2012-05-02T11:30:00Z,29.6350,-93.6417,2.0,221.3459647,22.85772517,-99999.0,'11111222,11111222,99999999' 
TABS,ioos:station:wmo:42051:1,2012-05-02T12:00:00Z,29.6350,-93.6417,2.0,237.0338962,28.52218961,-99999.0,'11111222,11111222,99999999' 
TABS,ioos:station:wmo:42051:1,2012-05-02T12:30:00Z,29.6350,-93.6417,2.0,218.598719,35.32808656,-99999.0,'11111222,11111222,99999999' 
TABS,ioos:station:wmo:42051:1,2012-05-02T13:00:00Z,29.6350,-93.6417,2.0,216.3411243,28.83922676,-99999.0,'11111222,11111222,99999999' 
TABS,ioos:station:wmo:42051:1,2012-05-02T13:30:00Z,29.6350,-93.6417,2.0,249.2180541,11.89381352,-99999.0,'11111222,11111222,99999999' 
TABS,ioos:station:wmo:42051:1,2012-05-02T14:00:00Z,29.6350,-93.6417,2.0,300.2293764,12.03676036,-99999.0,'11111222,11111222,99999999' 
TABS,ioos:station:wmo:42051:1,2012-05-02T14:30:00Z,29.6350,-93.6417,2.0,281.0305509,15.26193959,-99999.0,'11111222,11111222,99999999' 
TABS,ioos:station:wmo:42051:1,2012-05-02T15:00:00Z,29.6350,-93.6417,2.0,276.690475,18.6268328,-99999.0,'11111222,11111222,99999999' 
TABS,ioos:station:wmo:42051:1,2012-05-02T15:30:00Z,29.6350,-93.6417,2.0,236.4388796,23.35293772,-99999.0,'11111222,11111222,99999999' 
TABS,ioos:station:wmo:42051:1,2012-05-02T16:00:00Z,29.6350,-93.6417,2.0,224.5421423,31.87739011,-99999.0,'11111222,11111222,99999999' 
TABS,ioos:station:wmo:42051:1,2012-05-02T16:30:00Z,29.6350,-93.6417,2.0,252.3280124,51.98297125,-99999.0,'11111222,11111222,99999999' 
TABS,ioos:station:wmo:42051:1,2012-05-02T17:00:00Z,29.6350,-93.6417,2.0,258.1636231,59.38254626,-99999.0,'11111222,11111222,99999999' 
TABS,ioos:station:wmo:42051:1,2012-05-02T17:30:00Z,29.6350,-93.6417,2.0,262.9250331,64.79328978,-99999.0,'11111222,11111222,99999999' 
TABS,ioos:station:wmo:42051:1,2012-05-02T18:00:00Z,29.6350,-93.6417,2.0,264.9471302,65.40412907,-99999.0,'11111222,11111222,99999999' 
TABS,ioos:station:wmo:42051:1,2012-05-02T18:30:00Z,29.6350,-93.6417,2.0,266.7571426,62.94075945,-99999.0,'11111222,11111222,99999999' 
TABS,ioos:station:wmo:42051:1,2012-05-02T19:00:00Z,29.6350,-93.6417,2.0,265.5235035,70.98650928,-99999.0,'11111222,11111222,99999999' 
TABS,ioos:station:wmo:42051:1,2012-05-02T19:30:00Z,29.6350,-93.6417,2.0,259.8139983,77.35917528,-99999.0,'11111222,11111222,99999999' 
TABS,ioos:station:wmo:42051:1,2012-05-02T20:00:00Z,29.6350,-93.6417,2.0,260.7233842,83.00548657,-99999.0,'11111222,11111222,99999999' 
TABS,ioos:station:wmo:42051:1,2012-05-02T20:30:00Z,29.6350,-93.6417,2.0,258.3446103,84.99239084,-99999.0,'11111222,11111222,99999999' 
TABS,ioos:station:wmo:42051:1,2012-05-02T21:00:00Z,29.6350,-93.6417,2.0,249.2131164,82.92783489,-99999.0,'11111222,11111222,99999999' 
TABS,ioos:station:wmo:42051:1,2012-05-02T21:30:00Z,29.6350,-93.6417,2.0,246.2619563,76.33837371,-99999.0,'11111222,11111222,99999999' 
TABS,ioos:station:wmo:42051:1,2012-05-02T22:00:00Z,29.6350,-93.6417,2.0,243.1411629,73.35293586,-99999.0,'11111222,11111222,99999999' 
TABS,ioos:station:wmo:42051:1,2012-05-02T22:30:00Z,29.6350,-93.6417,2.0,240.0369537,68.51728249,-99999.0,'11111222,11111222,99999999' 
TABS,ioos:station:wmo:42051:1,2012-05-02T23:00:00Z,29.6350,-93.6417,2.0,238.766771,69.73723898,-99999.0,'11111222,11111222,99999999' 
TABS,ioos:station:wmo:42051:1,2012-05-02T23:30:00Z,29.6350,-93.6417,2.0,240.4536271,59.68091236,-99999.0,'11111222,11111222,99999999' 
TABS,ioos:station:wmo:42051:1,2012-05-03T00:00:00Z,29.6350,-93.6417,2.0,249.7000858,52.28748607,-99999.0,'11111222,11111222,99999999' 
TABS,ioos:station:wmo:42051:1,2012-05-03T00:30:00Z,29.6350,-93.6417,2.0,263.4510553,49.80494755,-99999.0,'11111222,11111222,99999999' 
TABS,ioos:station:wmo:42051:1,2012-05-03T01:00:00Z,29.6350,-93.6417,2.0,263.8671701,46.89836884,-99999.0,'11111222,11111222,99999999' 
TABS,ioos:station:wmo:42051:1,2012-05-03T01:30:00Z,29.6350,-93.6417,2.0,263.8089306,43.58415882,-99999.0,'11111222,11111222,99999999' 
TABS,ioos:station:wmo:42051:1,2012-05-03T02:00:00Z,29.6350,-93.6417,2.0,260.1081731,42.14650638,-99999.0,'11111222,11111222,99999999' 
TABS,ioos:station:wmo:42051:1,2012-05-03T02:30:00Z,29.6350,-93.6417,2.0,259.7790722,39.5068918,-99999.0,'11111222,11111222,99999999' 
TABS,ioos:station:wmo:42051:1,2012-05-03T03:00:00Z,29.6350,-93.6417,2.0,251.5561179,42.35554745,-99999.0,'11111222,11111222,99999999' 
TABS,ioos:station:wmo:42051:1,2012-05-03T03:30:00Z,29.6350,-93.6417,2.0,246.058462,43.66699555,-99999.0,'11111222,11111222,99999999' 
TABS,ioos:station:wmo:42051:1,2012-05-03T04:00:00Z,29.6350,-93.6417,2.0,243.8684049,41.34608204,-99999.0,'11111222,11111222,99999999' 
TABS,ioos:station:wmo:42051:1,2012-05-03T04:30:00Z,29.6350,-93.6417,2.0,239.8606813,39.6734483,-99999.0,'11111222,11111222,99999999' 
TABS,ioos:station:wmo:42051:1,2012-05-03T05:00:00Z,29.6350,-93.6417,2.0,241.5028284,36.61629828,-99999.0,'11111222,11111222,99999999' 
TABS,ioos:station:wmo:42051:1,2012-05-03T05:30:00Z,29.6350,-93.6417,2.0,234.2797083,35.07906498,-99999.0,'11111222,11111222,99999999' 
TABS,ioos:station:wmo:42051:1,2012-05-03T06:00:00Z,29.6350,-93.6417,2.0,236.1085366,32.40578498,-99999.0,'11111222,11111222,99999999' 
TABS,ioos:station:wmo:42051:1,2012-05-03T06:30:00Z,29.6350,-93.6417,2.0,229.1241373,31.95205314,-99999.0,'11111222,11111222,99999999' 
TABS,ioos:station:wmo:42051:1,2012-05-03T09:30:00Z,29.6350,-93.6417,2.0,221.2133366,48.613638,-99999.0,'11111222,11111222,99999999' 
TABS,ioos:station:wmo:42051:1,2012-05-03T10:00:00Z,29.6350,-93.6417,2.0,219.4468375,50.3489275,-99999.0,'11111222,11111222,99999999' 
TABS,ioos:station:wmo:42051:1,2012-05-03T10:30:00Z,29.6350,-93.6417,2.0,219.3215036,48.52642682,-99999.0,'11111222,11111222,99999999' 
TABS,ioos:station:wmo:42051:1,2012-05-03T11:00:00Z,29.6350,-93.6417,2.0,221.4510709,51.98008946,-99999.0,'11111222,11111222,99999999' 
TABS,ioos:station:wmo:42051:1,2012-05-03T11:30:00Z,29.6350,-93.6417,2.0,224.1639419,56.23511359,-99999.0,'11111222,11111222,99999999' 
TABS,ioos:station:wmo:42051:1,2012-05-03T12:00:00Z,29.6350,-93.6417,2.0,230.9889288,55.84097599,-99999.0,'11111222,11111222,99999999' 
TABS,ioos:station:wmo:42051:1,2012-05-03T12:30:00Z,29.6350,-93.6417,2.0,240.9276602,51.22367617,-99999.0,'11111222,11111222,99999999' 
TABS,ioos:station:wmo:42051:1,2012-05-03T13:00:00Z,29.6350,-93.6417,2.0,245.5400605,48.56888098,-99999.0,'11111222,11111222,99999999' 
TABS,ioos:station:wmo:42051:1,2012-05-03T13:30:00Z,29.6350,-93.6417,2.0,253.4711382,47.24211786,-99999.0,'11111222,11111222,99999999' 
TABS,ioos:station:wmo:42051:1,2012-05-03T14:00:00Z,29.6350,-93.6417,2.0,252.1578267,43.37612477,-99999.0,'11111222,11111222,99999999' 
TABS,ioos:station:wmo:42051:1,2012-05-03T14:30:00Z,29.6350,-93.6417,2.0,252.2806305,45.0469999,-99999.0,'11111222,11111222,99999999' 
TABS,ioos:station:wmo:42051:1,2012-05-03T15:00:00Z,29.6350,-93.6417,2.0,255.2039627,47.02936317,-99999.0,'11111222,11111222,99999999' 
TABS,ioos:station:wmo:42051:1,2012-05-03T15:30:00Z,29.6350,-93.6417,2.0,257.0757092,47.97531136,-99999.0,'11111222,11111222,99999999' 
TABS,ioos:station:wmo:42051:1,2012-05-03T16:00:00Z,29.6350,-93.6417,2.0,258.0941254,47.35872148,-99999.0,'11111222,11111222,99999999' 
TABS,ioos:station:wmo:42051:1,2012-05-03T16:30:00Z,29.6350,-93.6417,2.0,260.9648203,46.48675188,-99999.0,'11111222,11111222,99999999' 
TABS,ioos:station:wmo:42051:1,2012-05-03T17:00:00Z,29.6350,-93.6417,2.0,256.1180676,44.01552567,-99999.0,'11111222,11111222,99999999' 
TABS,ioos:station:wmo:42051:1,2012-05-03T17:30:00Z,29.6350,-93.6417,2.0,252.7336525,46.96643589,-99999.0,'11111222,11111222,99999999' 
TABS,ioos:station:wmo:42051:1,2012-05-03T18:00:00Z,29.6350,-93.6417,2.0,253.2780685,46.74671539,-99999.0,'11111222,11111222,99999999' 
TABS,ioos:station:wmo:42051:1,2012-05-03T18:30:00Z,29.6350,-93.6417,2.0,252.6716978,45.82995745,-99999.0,'11111222,11111222,99999999' 
TABS,ioos:station:wmo:42051:1,2012-05-03T19:00:00Z,29.6350,-93.6417,2.0,252.1475758,48.17979348,-99999.0,'11111222,11111222,99999999' 
TABS,ioos:station:wmo:42051:1,2012-05-03T19:30:00Z,29.6350,-93.6417,2.0,249.6474802,48.0176051,-99999.0,'11111222,11111222,99999999' 
TABS,ioos:station:wmo:42051:1,2012-05-03T20:00:00Z,29.6350,-93.6417,2.0,249.9088951,49.57675363,-99999.0,'11111222,11111222,99999999' 
TABS,ioos:station:wmo:42051:1,2012-05-03T20:30:00Z,29.6350,-93.6417,2.0,247.5107761,48.44397279,-99999.0,'11111222,11111222,99999999' 
TABS,ioos:station:wmo:42051:1,2012-05-03T21:00:00Z,29.6350,-93.6417,2.0,242.7643442,49.31761754,-99999.0,'11111222,11111222,99999999' 
TABS,ioos:station:wmo:42051:1,2012-05-03T21:30:00Z,29.6350,-93.6417,2.0,246.4064466,48.04616322,-99999.0,'11111222,11111222,99999999' 
TABS,ioos:station:wmo:42051:1,2012-05-03T22:00:00Z,29.6350,-93.6417,2.0,245.3475369,49.43570875,-99999.0,'11111222,11111222,99999999' 
TABS,ioos:station:wmo:42051:1,2012-05-03T22:30:00Z,29.6350,-93.6417,2.0,246.3085528,40.94023205,-99999.0,'11111222,11111222,99999999' 
TABS,ioos:station:wmo:42051:1,2012-05-03T23:00:00Z,29.6350,-93.6417,2.0,247.7759321,42.8317931,-99999.0,'11111222,11111222,99999999' 
TABS,ioos:station:wmo:42051:1,2012-05-03T23:30:00Z,29.6350,-93.6417,2.0,249.0584317,49.9706764,-99999.0,'11111222,11111222,99999999' 
TABS,ioos:station:wmo:42051:1,2012-05-04T00:00:00Z,29.6350,-93.6417,2.0,253.3458542,51.88642404,-99999.0,'11111222,11111222,99999999' 
TABS,ioos:station:wmo:42051:1,2012-05-04T00:30:00Z,29.6350,-93.6417,2.0,251.9403185,50.6449652,-99999.0,'11111222,11111222,99999999' 
TABS,ioos:station:wmo:42051:1,2012-05-04T01:00:00Z,29.6350,-93.6417,2.0,252.3499807,51.22106012,-99999.0,'11111222,11111222,99999999' 
TABS,ioos:station:wmo:42051:1,2012-05-04T01:30:00Z,29.6350,-93.6417,2.0,254.0090199,50.49375902,-99999.0,'11111222,11111222,99999999' 
TABS,ioos:station:wmo:42051:1,2012-05-04T02:00:00Z,29.6350,-93.6417,2.0,260.3225567,50.44782751,-99999.0,'11111222,11111222,99999999' 
TABS,ioos:station:wmo:42051:1,2012-05-04T02:30:00Z,29.6350,-93.6417,2.0,258.5026148,44.45192009,-99999.0,'11111222,11111222,99999999' 
TABS,ioos:station:wmo:42051:1,2012-05-04T03:00:00Z,29.6350,-93.6417,2.0,266.4049267,42.9044112,-99999.0,'11111222,11111222,99999999' 
TABS,ioos:station:wmo:42051:1,2012-05-04T03:30:00Z,29.6350,-93.6417,2.0,272.4684035,38.08532657,-99999.0,'11111222,11111222,99999999' 
TABS,ioos:station:wmo:42051:1,2012-05-04T04:00:00Z,29.6350,-93.6417,2.0,274.2680709,36.55134608,-99999.0,'11111222,11111222,99999999' 
TABS,ioos:station:wmo:42051:1,2012-05-04T04:30:00Z,29.6350,-93.6417,2.0,276.5457509,39.477315,-99999.0,'11111222,11111222,99999999' 
TABS,ioos:station:wmo:42051:1,2012-05-04T05:00:00Z,29.6350,-93.6417,2.0,276.7635624,35.15462558,-99999.0,'11111222,11111222,99999999' 
TABS,ioos:station:wmo:42051:1,2012-05-04T05:30:00Z,29.6350,-93.6417,2.0,279.801307,24.20324152,-99999.0,'11111222,11111222,99999999' 
TABS,ioos:station:wmo:42051:1,2012-05-04T06:00:00Z,29.6350,-93.6417,2.0,273.9517022,25.83140143,-99999.0,'11111222,11111222,99999999' 
TABS,ioos:station:wmo:42051:1,2012-05-04T06:30:00Z,29.6350,-93.6417,2.0,268.6152876,22.76664446,-99999.0,'11111222,11111222,99999999' 
TABS,ioos:station:wmo:42051:1,2012-05-04T07:00:00Z,29.6350,-93.6417,2.0,255.2500631,19.48197115,-99999.0,'11111222,11111222,99999999' 
TABS,ioos:station:wmo:42051:1,2012-05-04T07:30:00Z,29.6350,-93.6417,2.0,252.4197688,16.95169608,-99999.0,'11111222,11111222,99999999' 
TABS,ioos:station:wmo:42051:1,2012-05-04T08:00:00Z,29.6350,-93.6417,2.0,269.8680164,17.42004592,-99999.0,'11111222,11111222,99999999' 
TABS,ioos:station:wmo:42051:1,2012-05-04T08:30:00Z,29.6350,-93.6417,2.0,263.6144879,21.13107901,-99999.0,'11111222,11111222,99999999' 
TABS,ioos:station:wmo:42051:1,2012-05-04T09:00:00Z,29.6350,-93.6417,2.0,258.5203498,19.24496038,-99999.0,'11111222,11111222,99999999' 
TABS,ioos:station:wmo:42051:1,2012-05-04T09:30:00Z,29.6350,-93.6417,2.0,250.717019,21.80312822,-99999.0,'11111222,11111222,99999999' 
TABS,ioos:station:wmo:42051:1,2012-05-04T10:00:00Z,29.6350,-93.6417,2.0,252.1259347,28.08553542,-99999.0,'11111222,11111222,99999999' 
TABS,ioos:station:wmo:42051:1,2012-05-04T10:30:00Z,29.6350,-93.6417,2.0,257.141519,33.02820764,-99999.0,'11111222,11111222,99999999' 
TABS,ioos:station:wmo:42051:1,2012-05-04T11:00:00Z,29.6350,-93.6417,2.0,251.6402229,31.17692255,-99999.0,'11111222,11111222,99999999' 
TABS,ioos:station:wmo:42051:1,2012-05-04T11:30:00Z,29.6350,-93.6417,2.0,255.4055043,35.12324871,-99999.0,'11111222,11111222,99999999' 
TABS,ioos:station:wmo:42051:1,2012-05-04T12:00:00Z,29.6350,-93.6417,2.0,260.8248156,33.74167305,-99999.0,'11111222,11111222,99999999' 
TABS,ioos:station:wmo:42051:1,2012-05-04T12:30:00Z,29.6350,-93.6417,2.0,262.981848,35.11305455,-99999.0,'11111222,11111222,99999999' 
TABS,ioos:station:wmo:42051:1,2012-05-04T13:00:00Z,29.6350,-93.6417,2.0,263.8564673,37.56571442,-99999.0,'11111222,11111222,99999999' 
TABS,ioos:station:wmo:42051:1,2012-05-04T13:30:00Z,29.6350,-93.6417,2.0,258.2404648,35.77072127,-99999.0,'11111222,11111222,99999999' 
TABS,ioos:station:wmo:42051:1,2012-05-04T14:00:00Z,29.6350,-93.6417,2.0,260.2319028,31.77055555,-99999.0,'11111222,11111222,99999999' 
TABS,ioos:station:wmo:42051:1,2012-05-04T14:30:00Z,29.6350,-93.6417,2.0,254.2265834,31.04912237,-99999.0,'11111222,11111222,99999999' 
TABS,ioos:station:wmo:42051:1,2012-05-04T15:00:00Z,29.6350,-93.6417,2.0,256.7937485,30.29103003,-99999.0,'11111222,11111222,99999999' 
TABS,ioos:station:wmo:42051:1,2012-05-04T15:30:00Z,29.6350,-93.6417,2.0,256.1104737,34.95192412,-99999.0,'11111222,11111222,99999999' 
TABS,ioos:station:wmo:42051:1,2012-05-04T16:00:00Z,29.6350,-93.6417,2.0,259.2145384,34.89640812,-99999.0,'11111222,11111222,99999999' 
TABS,ioos:station:wmo:42051:1,2012-05-04T16:30:00Z,29.6350,-93.6417,2.0,259.4680102,37.96962602,-99999.0,'11111222,11111222,99999999' 
TABS,ioos:station:wmo:42051:1,2012-05-04T17:00:00Z,29.6350,-93.6417,2.0,252.825559,37.79520737,-99999.0,'11111222,11111222,99999999' 
TABS,ioos:station:wmo:42051:1,2012-05-04T17:30:00Z,29.6350,-93.6417,2.0,251.049994,44.00486905,-99999.0,'11111222,11111222,99999999' 
TABS,ioos:station:wmo:42051:1,2012-05-04T18:00:00Z,29.6350,-93.6417,2.0,253.2477337,42.74397384,-99999.0,'11111222,11111222,99999999' 
TABS,ioos:station:wmo:42051:1,2012-05-04T18:30:00Z,29.6350,-93.6417,2.0,259.2002409,42.69617781,-99999.0,'11111222,11111222,99999999' 